Change the Weather History Date:

Monday, January 7, 2013

  Actual Average Record
Temperature  
Mean Temperature 2 °F -  
Max Temperature 8 °F 2 °F 35 °F (1993)
Min Temperature -4 °F -12 °F -53 °F (2012)
Degree Days  
Heating Degree Days 63    
Moisture  
Dew Point 0 °F    
Average Humidity 88    
Maximum Humidity 92    
Minimum Humidity 83    
Precipitation  
Precipitation 0.00 in - - ()
Sea Level Pressure  
Sea Level Pressure 29.42 in    
Wind  
Wind Speed 1 mph (East)    
Max Wind Speed 5 mph    
Max Gust Speed -    
Visibility 10 miles    
Events Snow    
Averages and records for this station are not official NWS values.
T = Trace of Precipitation, MM = Missing Value Source: NWS Daily Summary

Daily Weather History Graph

Daily Weather History Graph

Search for Another Location

Airport or City:

Trip Planner

Search our weather history database for the weather conditions in past years. The results will help you decide how hot, cold, wet, or windy it might be!

Date:

Astronomy

Jan. 07, 2013 Rise Set
Actual Time 11:18 AM AKST 3:50 PM AKST
Civil Twilight 10:02 AM AKST 5:06 PM AKST
Nautical Twilight 8:54 AM AKST 6:14 PM AKST
Astronomical Twilight 7:53 AM AKST 7:15 PM AKST
Moon 6:24 AM AKST (1/7) 12:36 PM AKST (1/7)
Length of Visible Light 7h 03m
Length of Day
4h 31m
Waning Crescent, 21% of the Moon is Illuminated
Jan 7
Waning Crescent
Jan 11
New
Jan 18
First Quarter
Jan 26
Full
Feb 3
Last Quarter

Hourly Weather History & Observations

Time (AKST) Temp. Windchill Dew Point Humidity Pressure Visibility Wind Dir Wind Speed Gust Speed Precip Events Conditions
12:58 AM 1.9 °F - -0.9 °F 88% 29.31 in 10.0 mi Calm Calm - N/A   Partly Cloudy
1:58 AM 3.0 °F -6.4 °F -0.0 °F 87% 29.31 in 10.0 mi West 4.6 mph - N/A   Mostly Cloudy
2:58 AM 7.0 °F - 3.9 °F 87% 29.29 in 10.0 mi Calm Calm - N/A   Overcast
3:58 AM 3.9 °F -5.3 °F 1.0 °F 88% 29.30 in 10.0 mi West 4.6 mph - N/A   Partly Cloudy
4:58 AM 5.0 °F - 1.9 °F 87% 29.30 in 10.0 mi Calm Calm - N/A   Mostly Cloudy
5:58 AM 1.0 °F - -2.0 °F 87% 29.30 in 10.0 mi Calm Calm - N/A   Overcast
6:58 AM -0.9 °F - -4.0 °F 87% 29.31 in 10.0 mi Calm Calm - N/A   Overcast
7:58 AM -2.0 °F - -5.1 °F 87% 29.32 in 10.0 mi Calm Calm - N/A   Partly Cloudy
8:58 AM -2.9 °F - -6.0 °F 87% 29.34 in 10.0 mi Calm Calm - N/A   Mostly Cloudy
9:58 AM -4.0 °F - -7.1 °F 87% 29.36 in 10.0 mi Calm Calm - N/A   Mostly Cloudy
10:58 AM -0.9 °F - -5.1 °F 83% 29.37 in 10.0 mi Calm Calm - N/A   Overcast
11:58 AM -0.9 °F -8.9 °F -5.1 °F 83% 29.40 in 10.0 mi East 3.5 mph - N/A   Overcast
12:58 PM 1.9 °F - -0.9 °F 88% 29.41 in 10.0 mi Calm Calm - N/A   Overcast
1:58 PM 3.9 °F - 1.9 °F 91% 29.42 in 10.0 mi Calm Calm - N/A   Overcast
2:58 PM 3.9 °F -5.3 °F 1.0 °F 88% 29.44 in 10.0 mi East 4.6 mph - N/A   Overcast
3:58 PM 6.1 °F - 3.0 °F 87% 29.47 in 10.0 mi Calm Calm - N/A   Overcast
4:58 PM 5.0 °F - 3.0 °F 92% 29.49 in 10.0 mi Calm Calm - N/A   Overcast
5:58 PM 7.0 °F - 5.0 °F 92% 29.50 in 9.0 mi Calm Calm - 0.00 in Snow Light Snow
6:58 PM 7.0 °F 0.1 °F 5.0 °F 92% 29.52 in 10.0 mi East 3.5 mph - 0.00 in   Overcast
7:58 PM 8.1 °F - 5.0 °F 87% 29.55 in 10.0 mi Calm Calm - 0.00 in   Overcast
9:58 PM 6.1 °F -0.9 °F 3.9 °F 91% 29.59 in 10.0 mi East 3.5 mph - N/A   Overcast
10:58 PM 7.0 °F - 3.9 °F 87% 29.62 in 10.0 mi Calm Calm - N/A   Mostly Cloudy
11:58 PM 5.0 °F - 1.9 °F 87% 29.64 in 10.0 mi Calm Calm - N/A   Scattered Clouds